星链-36515(STARLINK-36515)

导读 | 豆包AI

STARLINK-36515是美国SpaceX公司星链(Starlink)星座的成员卫星,于2026年1月12日发射入轨。作为星链低轨互联网星座的组网卫星,它运行在近地轨道,服务全球高速互联网接入,尤其覆盖偏远区域。星链项目整体计划部署数万颗卫星,新一代卫星重量更大,设计寿命约五年,旨在搭建全球卫星互联网络。

基本信息
目录编号:
67430
目录名称:
STARLINK-36515
国际标识:
2026-005AC
轨道中心:
EARTH
卫星名称:
星链-36515
卫星全名:
星链-36515(STARLINK-36515)
卫星状态:
在轨 (已飞行133 天)
发射日期:
2026-01-12 UTC
国别 :
美国 (US)
星等 :
--
轨道信息
数据来源 国际轨道数据 AOE轨道数据
星历时间 2026-05-24T11:19:24+0800
1天前
查看轨道信息
2026-05-24T02:00:00+0800
1天前
查看轨道信息
半长轴 6861.169km 6861.081km
偏心率 0.0001326 0.0001748
轨道倾角 43.002° 43.001°
近地点辐角 258.032° 266.026°
升交点赤经 172.038° 174.236°
平近点角 102.039° 115.269°
近地点 482.122km 481.744km
远地点 483.942km 484.144km
周期 94.266分钟 94.265分钟
每日圈数 15.275859 15.276153
详细信息
固有亮度:
5
最大亮度:
2.5
卫星平台:
Starlink V1.0
覆盖范围:
全球
运营商:
太空探索技术公司
运营商所在国:
美国
制造商(研发单位):
太空探索技术公司
制造商所在国:
美国
使用方式:
暂无
卫星简介
Starlink 计划是 SpaceX 推出的全球卫星互联网项目,通过发射低轨道卫星,为全球尤其是偏远地区提供高速、低延迟的互联网服务。自 2019 年起,Starlink 已部署数千颗卫星,旨在缩小全球数字鸿沟,推动互联网普及。该项目还为军事、航空等行业提供通信支持,带来广泛经济效益。
2D轨道图
3D轨道图
轨道高度分析图
轨道倾角分析图
轨道综合分析图
查看轨道综合分析图